This is the latest recevied weather packets stored in our database for station/object DB0LC-2. If no packets are shown the sender has not sent any weather packets the latest 10 day(s).
| Time | Temp. | Humidity | Pressure | Rain* | Wind** | Luminosity | Snow |
|---|---|---|---|---|---|---|---|
| 1777533705 | 19.44° C | 27% | 917.6 hPa | 0 mm | - | - | - |
| 1777533080 | 18.89° C | 27% | 917.6 hPa | 0 mm | - | - | - |
| 1777531883 | 18.33° C | 27% | 917.6 hPa | 0 mm | - | - | - |
| 1777531226 | 19.44° C | 27% | 917.6 hPa | 0 mm | - | - | - |
| 1777530612 | 18.89° C | 27% | 917.4 hPa | 0 mm | - | - | - |
| 1777529981 | 18.89° C | 26% | 917.4 hPa | 0 mm | - | - | - |
| 1777529374 | 19.44° C | 27% | 917.3 hPa | 0 mm | - | - | - |
| 1777529372 | 19.44° C | 27% | 917.2 hPa | 0 mm | - | - | - |
| 1777528156 | 18.89° C | 26% | 917.1 hPa | 0 mm | - | - | - |
| 1777527549 | 20° C | 27% | 917.2 hPa | 0 mm | - | - | - |
| 1777527547 | 20° C | 27% | 917.1 hPa | 0 mm | - | - | - |
| 1777526945 | 20° C | 27% | 917.1 hPa | 0 mm | - | - | - |
| 1777525738 | 19.44° C | 27% | 916.9 hPa | 0 mm | - | - | - |
| 1777525737 | 19.44° C | 27% | 917 hPa | 0 mm | - | - | - |
| 1777524508 | 18.89° C | 27% | 917.1 hPa | 0 mm | - | - | - |
| 1777523912 | 20° C | 26% | 916.8 hPa | 0 mm | - | - | - |
| 1777523910 | 20° C | 26% | 916.9 hPa | 0 mm | - | - | - |
| 1777523299 | 20° C | 27% | 916.8 hPa | 0 mm | - | - | - |
| 1777522659 | 20° C | 27% | 916.9 hPa | 0 mm | - | - | - |
| 1777522048 | 19.44° C | 27% | 916.9 hPa | 0 mm | - | - | - |
| 1777522046 | 19.44° C | 27% | 916.7 hPa | 0 mm | - | - | - |
| 1777521411 | 19.44° C | 27% | 916.5 hPa | 0 mm | - | - | - |
| 1777520786 | 18.89° C | 27% | 916.9 hPa | 0 mm | - | - | - |
| 1777520169 | 18.89° C | 27% | 916.7 hPa | 0 mm | - | - | - |
| 1777519536 | 20° C | 27% | 916.8 hPa | 0 mm | - | - | - |
* Rain latest hour (hover to see other rain measurements)
** Current wind speed in m/s (hover to see current wind gust speed)